Regional Weather Roundup
Issued by NWS

Home | Current Version | Previous Version | Text Only | Print | Product List | Glossary On
Versions: 1 2 3 4 5 6 7 8 9 10 11 12 13 14 15 16 17 18 19 20 21 22 23 24 25 26 27 28 29 30 31 32 33 34 35 36 37 38 39 40 41 42 43 44 45 46 47 48 49 50
000
ASUS42 KKEY 281210
RWRKEY

FLORIDA REGIONAL WEATHER ROUNDUP FOR THE FLORIDA KEYS
NATIONAL WEATHER SERVICE KEY WEST FLORIDA
800 AM EDT MON JUL 28 2014

...SOUTH FLORIDA AND THE KEYS...

CITY           SKY/WX    TMP DP  RH WIND       PRES   REMARKS
FORT MYERS     SUNNY     81  77  88 CALM      30.08R
SW REGIONAL AP SUNNY     79  76  90 S5        30.08S
NAPLES         MOSUNNY   81  80  97 CALM      30.09R HX  91
MIAMI          PTSUNNY   83  75  77 W3        30.09R HX  90
WEST KENDALL   SUNNY     83  76  79 CALM      30.09R HX  91
HOMESTEAD      NOT AVBL
MARATHON       SUNNY     85  77  77 CALM      30.07R HX  95
BOCA CHICA NAS MOSUNNY   86  77  74 CALM      30.07R HX  97
KEY WEST INTL  SUNNY     85  76  74 SE5       30.08R HX  94

...INTERNATIONAL WEATHER...

CITY           SKY/WX    TMP DP  RH WIND       PRES   REMARKS
NASSAU BAHAMAS MOSUNNY   84  77  79 CALM      30.09R HX  94
CANCUN MEXICO  PTCLDY    77  75  94 CALM      30.05R
COZUMEL MEXICO PTCLDY    73  73 100 CALM      30.04R

ADJACENT COASTAL WATERS...

STATION/POSITION TIME  SKY/WX   TEMP    WIND        PRES    WAVE
                                AIR SEA DIR/SP/G            HT/PER
                 (UTC)          (F)     (DEG/KT/KT) (MB)    (FT/S)
PULASKI SHOAL LI 1200            85     120/  4/  4 1018.6R
SAND KEY         1200            84     130/  6/  7 1018.3R
SOMBRERO KEY     1200            87     100/  2/  3 1019.1R
LONG KEY         1100            84 89  150/  1/  2 1018.8R
MOLASSES REEF    1200            85 87   CALM  /  1 1018.5R
FOWEY ROCKS      1200            85 87  260/  7/  9 1019.1R
Buoy 42080       NOT AVBL

$$


USA.gov is the U.S. government's official web portal to all federal, state and local government web resources and services.